DMSP 5D-2 F13 DEB, 40678

Orbit data source: Space-Track

DMSP 5D-2 F13 DEB, 40678 is space debris in SSO originally from a launch on Fri, 24 Mar 1995 UTC launched from the Air Force Western Test Range (AFWTR). Debris objects in space refer to the collection of defunct objects orbiting the Earth. Examples of debris include non-operational satellites, rocket bodies, and fragments generated from explosions, collisions, or faulty payload assembly.

Loading next visibility...
Identifier
40678, 1995-015FS
Orbit
SSO
Country
Flag of USUS
Related business
Manufacturer
Unknown
Mission
Spacecraft
Bus & Motor
Unknown
Mass
Unknown
Launch date (UTC)
1995-03-24 (31 years ago)
Launch vehicle
Unknown
Launch site
Air Force Western Test Range (AFWTR)
Object type
Payload
Rocket body
Debris
Shape & HBR
Unknown shape, 0.1 m
Radar Cross Section
Small (<0.1 m²)

Expand to show TLE details & history
Last TLE update: 2 days ago

TLE from 2 days ago
0 DMSP 5D-2 F13 DEB
1 40678U 95015FS  25340.06938410  .00014871  00000-0  36303-2 0  9998
2 40678  98.5942  24.3352 0014066  37.7087 322.5091 14.52650149551620
Epoch: 2025-12-06T01:39Z
TLE epoch observation values (Epoch: 2025-12-06T01:39:54.786Z)
Latitude
-0.00001°
Longitude
-75.74549°
Altitude
712.054 km
Speed
7.504 km/s
True Right ascension
01h 37m 20s
True Declination
0° 00' 00"
Sunlit
Object was in full shadow at epoch
Visualization orbit readout
Latitude
Unknown
Longitude
Unknown
Altitude
Unknown
Speed
Unknown
Apparent Right ascension
Unknown
Apparent Declination
Unknown
Sunlit
N/A
Visualization observer readout
Local Sidereal Time
14:31:18
Azimuth
Unknown
Elevation
Unknown
Doppler factor
Unknown
Orbital elements
Apogee altitude
724.091 km
Perigee altitude
704.14 km
Semi-major axis
7,092.253 km
Eccentricity
0.00141
Inclination
98.5942°
RAAN
24.3352°
Arg. of periapsis
37.7087°
True anomaly
322.41086°
Mean anomaly
322.5091°
Eccentric anomaly
322.45999°
Mean motion
3.63385 °/min
Orbital period
99.07 mins
BSTAR
0.0036303
Loading maneuver chart data...
Computing Atmospheric mass density...

Documentation

Showing up to 5 results
|